Starlink 32330

operational
NORAD ID: 61850 Int'l Des: 2024-202 Owner: SPXS Country: US Constellation: starlink
LEOCIRCULAR

About Starlink 32330

Description loading...

Live Position

Loading 3D Globe...

Upcoming Passes

Altitude History

Altitude vs Time

uPlot chart will show altitude changes over time

Two-Line Element Set

1 61850U 24202F 25350.98781686 .00000115 00000-0 13701-4 0 9991
2 61850 43.0029 344.6860 0001430 205.8126 154.2654 15.27589614 62691
Epoch: Dec 16, 2025 • Age: 12 hours

Current Status

Altitude 489.1 km
Velocity 7.62 km/s
Sub-Earth Point -23.53°S, 46.14°E
Launch Date Nov 7, 2024
Age 1.1 years
Type internet

Technical Details

Classification Payload
Mass 730.00 kg
Dry Mass 700.00 kg
Total Mass 730.00 kg
Length 0.30 m
Diameter 4.10 m
Span 29.00 m
Shape Box + pan
Manufacturer SPXS
Bus Type Starlink V2M
Phase Status In Orbit
Owner/State SPXS/US

Large Constellations

Loading constellations...